owner,sensor,date,latitude,longitude,vertical_datum,sea_water_practical_salinity,qcFlag 
WAVCIS,ioos:station:WAVCIS:CSI16:1,2009-04-01T00:00:00Z,29.4012,-89.0355,1.0,21.062,11111222 
WAVCIS,ioos:station:WAVCIS:CSI16:1,2009-04-01T00:15:00Z,29.4012,-89.0355,1.0,19.634,11111222 
WAVCIS,ioos:station:WAVCIS:CSI16:1,2009-04-01T00:30:00Z,29.4012,-89.0355,1.0,21.181,11111222 
WAVCIS,ioos:station:WAVCIS:CSI16:1,2009-04-01T00:45:00Z,29.4012,-89.0355,1.0,21.122,11111222 
WAVCIS,ioos:station:WAVCIS:CSI16:1,2009-04-01T01:00:00Z,29.4012,-89.0355,1.0,25.81,11111222 
WAVCIS,ioos:station:WAVCIS:CSI16:1,2009-04-01T01:15:00Z,29.4012,-89.0355,1.0,22.365,11111222 
WAVCIS,ioos:station:WAVCIS:CSI16:1,2009-04-01T01:30:00Z,29.4012,-89.0355,1.0,19.513,11111222 
WAVCIS,ioos:station:WAVCIS:CSI16:1,2009-04-01T01:45:00Z,29.4012,-89.0355,1.0,19.286,11111222 
WAVCIS,ioos:station:WAVCIS:CSI16:1,2009-04-01T02:00:00Z,29.4012,-89.0355,1.0,18.917,11111222 
WAVCIS,ioos:station:WAVCIS:CSI16:1,2009-04-01T02:15:00Z,29.4012,-89.0355,1.0,19.42,11111222 
WAVCIS,ioos:station:WAVCIS:CSI16:1,2009-04-01T02:30:00Z,29.4012,-89.0355,1.0,19.321,11111222 
WAVCIS,ioos:station:WAVCIS:CSI16:1,2009-04-01T02:45:00Z,29.4012,-89.0355,1.0,19.503,11111222 
WAVCIS,ioos:station:WAVCIS:CSI16:1,2009-04-01T03:00:00Z,29.4012,-89.0355,1.0,19.89,11111222 
WAVCIS,ioos:station:WAVCIS:CSI16:1,2009-04-01T03:15:00Z,29.4012,-89.0355,1.0,20.613,11111222 
WAVCIS,ioos:station:WAVCIS:CSI16:1,2009-04-01T03:30:00Z,29.4012,-89.0355,1.0,19.153,11111222 
WAVCIS,ioos:station:WAVCIS:CSI16:1,2009-04-01T03:45:00Z,29.4012,-89.0355,1.0,18.456,11111222 
WAVCIS,ioos:station:WAVCIS:CSI16:1,2009-04-01T04:00:00Z,29.4012,-89.0355,1.0,17.573,11111222 
WAVCIS,ioos:station:WAVCIS:CSI16:1,2009-04-01T04:15:00Z,29.4012,-89.0355,1.0,16.073,11111222 
WAVCIS,ioos:station:WAVCIS:CSI16:1,2009-04-01T04:30:00Z,29.4012,-89.0355,1.0,17.457,11111222 
WAVCIS,ioos:station:WAVCIS:CSI16:1,2009-04-01T04:45:00Z,29.4012,-89.0355,1.0,17.427,11111222 
WAVCIS,ioos:station:WAVCIS:CSI16:1,2009-04-01T05:00:00Z,29.4012,-89.0355,1.0,17.827,11111222 
WAVCIS,ioos:station:WAVCIS:CSI16:1,2009-04-01T05:15:00Z,29.4012,-89.0355,1.0,17.659,11111222 
WAVCIS,ioos:station:WAVCIS:CSI16:1,2009-04-01T05:30:00Z,29.4012,-89.0355,1.0,18.807,11111222 
WAVCIS,ioos:station:WAVCIS:CSI16:1,2009-04-01T05:45:00Z,29.4012,-89.0355,1.0,20.519,11111222 
WAVCIS,ioos:station:WAVCIS:CSI16:1,2009-04-01T06:00:00Z,29.4012,-89.0355,1.0,21.618,11111222 
WAVCIS,ioos:station:WAVCIS:CSI16:1,2009-04-01T06:15:00Z,29.4012,-89.0355,1.0,23.058,11111222 
WAVCIS,ioos:station:WAVCIS:CSI16:1,2009-04-01T06:30:00Z,29.4012,-89.0355,1.0,23.957,11111222 
WAVCIS,ioos:station:WAVCIS:CSI16:1,2009-04-01T06:45:00Z,29.4012,-89.0355,1.0,23.105,11111222 
WAVCIS,ioos:station:WAVCIS:CSI16:1,2009-04-01T07:00:00Z,29.4012,-89.0355,1.0,24.166,11111222 
WAVCIS,ioos:station:WAVCIS:CSI16:1,2009-04-01T07:15:00Z,29.4012,-89.0355,1.0,23.751,11111222 
WAVCIS,ioos:station:WAVCIS:CSI16:1,2009-04-01T07:30:00Z,29.4012,-89.0355,1.0,24.142,11111222 
WAVCIS,ioos:station:WAVCIS:CSI16:1,2009-04-01T07:45:00Z,29.4012,-89.0355,1.0,24.997,11111222 
WAVCIS,ioos:station:WAVCIS:CSI16:1,2009-04-01T08:00:00Z,29.4012,-89.0355,1.0,25.743,11111222 
WAVCIS,ioos:station:WAVCIS:CSI16:1,2009-04-01T08:15:00Z,29.4012,-89.0355,1.0,24.563,11111222 
WAVCIS,ioos:station:WAVCIS:CSI16:1,2009-04-01T08:30:00Z,29.4012,-89.0355,1.0,27.302,11111222 
WAVCIS,ioos:station:WAVCIS:CSI16:1,2009-04-01T08:45:00Z,29.4012,-89.0355,1.0,20.826,11111222 
WAVCIS,ioos:station:WAVCIS:CSI16:1,2009-04-01T09:00:00Z,29.4012,-89.0355,1.0,20.929,11111222 
WAVCIS,ioos:station:WAVCIS:CSI16:1,2009-04-01T09:15:00Z,29.4012,-89.0355,1.0,20.713,11111222 
WAVCIS,ioos:station:WAVCIS:CSI16:1,2009-04-01T09:30:00Z,29.4012,-89.0355,1.0,23.49,11111222 
WAVCIS,ioos:station:WAVCIS:CSI16:1,2009-04-01T09:45:00Z,29.4012,-89.0355,1.0,24.465,11111222 
WAVCIS,ioos:station:WAVCIS:CSI16:1,2009-04-01T10:00:00Z,29.4012,-89.0355,1.0,25.929,11111222 
WAVCIS,ioos:station:WAVCIS:CSI16:1,2009-04-01T10:15:00Z,29.4012,-89.0355,1.0,25.444,11111222 
WAVCIS,ioos:station:WAVCIS:CSI16:1,2009-04-01T10:30:00Z,29.4012,-89.0355,1.0,23.279,11111222 
WAVCIS,ioos:station:WAVCIS:CSI16:1,2009-04-01T10:45:00Z,29.4012,-89.0355,1.0,22.055,11111222 
WAVCIS,ioos:station:WAVCIS:CSI16:1,2009-04-01T11:00:00Z,29.4012,-89.0355,1.0,22.172,11111222 
WAVCIS,ioos:station:WAVCIS:CSI16:1,2009-04-01T11:15:00Z,29.4012,-89.0355,1.0,22.852,11111222 
WAVCIS,ioos:station:WAVCIS:CSI16:1,2009-04-01T11:30:00Z,29.4012,-89.0355,1.0,23.752,11111222 
WAVCIS,ioos:station:WAVCIS:CSI16:1,2009-04-01T11:45:00Z,29.4012,-89.0355,1.0,24.959,11111222 
WAVCIS,ioos:station:WAVCIS:CSI16:1,2009-04-01T12:00:00Z,29.4012,-89.0355,1.0,26.512,11111222 
WAVCIS,ioos:station:WAVCIS:CSI16:1,2009-04-01T12:15:00Z,29.4012,-89.0355,1.0,27.834,11111222 
WAVCIS,ioos:station:WAVCIS:CSI16:1,2009-04-01T12:30:00Z,29.4012,-89.0355,1.0,28.145,11111222 
WAVCIS,ioos:station:WAVCIS:CSI16:1,2009-04-01T12:45:00Z,29.4012,-89.0355,1.0,28.792,11111222 
WAVCIS,ioos:station:WAVCIS:CSI16:1,2009-04-01T13:00:00Z,29.4012,-89.0355,1.0,29.898,11111222 
WAVCIS,ioos:station:WAVCIS:CSI16:1,2009-04-01T13:15:00Z,29.4012,-89.0355,1.0,29.444,11111222 
WAVCIS,ioos:station:WAVCIS:CSI16:1,2009-04-01T13:30:00Z,29.4012,-89.0355,1.0,30.173,11111222 
WAVCIS,ioos:station:WAVCIS:CSI16:1,2009-04-01T13:45:00Z,29.4012,-89.0355,1.0,29.93,11111222 
WAVCIS,ioos:station:WAVCIS:CSI16:1,2009-04-01T14:00:00Z,29.4012,-89.0355,1.0,29.921,11111222 
WAVCIS,ioos:station:WAVCIS:CSI16:1,2009-04-01T14:15:00Z,29.4012,-89.0355,1.0,30.374,11111222 
WAVCIS,ioos:station:WAVCIS:CSI16:1,2009-04-01T14:30:00Z,29.4012,-89.0355,1.0,30.722,11111222 
WAVCIS,ioos:station:WAVCIS:CSI16:1,2009-04-01T14:45:00Z,29.4012,-89.0355,1.0,30.875,11111222 
WAVCIS,ioos:station:WAVCIS:CSI16:1,2009-04-01T15:00:00Z,29.4012,-89.0355,1.0,30.945,11111222 
WAVCIS,ioos:station:WAVCIS:CSI16:1,2009-04-01T15:15:00Z,29.4012,-89.0355,1.0,31.194,11111222 
WAVCIS,ioos:station:WAVCIS:CSI16:1,2009-04-01T15:30:00Z,29.4012,-89.0355,1.0,31.045,11111222 
WAVCIS,ioos:station:WAVCIS:CSI16:1,2009-04-01T15:45:00Z,29.4012,-89.0355,1.0,31.301,11111222 
WAVCIS,ioos:station:WAVCIS:CSI16:1,2009-04-01T16:00:00Z,29.4012,-89.0355,1.0,31.416,11111222 
WAVCIS,ioos:station:WAVCIS:CSI16:1,2009-04-01T16:15:00Z,29.4012,-89.0355,1.0,31.442,11111222 
WAVCIS,ioos:station:WAVCIS:CSI16:1,2009-04-01T16:30:00Z,29.4012,-89.0355,1.0,31.696,11111222 
WAVCIS,ioos:station:WAVCIS:CSI16:1,2009-04-01T16:45:00Z,29.4012,-89.0355,1.0,31.924,11111222 
WAVCIS,ioos:station:WAVCIS:CSI16:1,2009-04-01T17:00:00Z,29.4012,-89.0355,1.0,32.069,11111222 
WAVCIS,ioos:station:WAVCIS:CSI16:1,2009-04-01T17:15:00Z,29.4012,-89.0355,1.0,32.181,11111222 
WAVCIS,ioos:station:WAVCIS:CSI16:1,2009-04-01T17:30:00Z,29.4012,-89.0355,1.0,32.129,11111222 
WAVCIS,ioos:station:WAVCIS:CSI16:1,2009-04-01T17:45:00Z,29.4012,-89.0355,1.0,32.237,11111222 
WAVCIS,ioos:station:WAVCIS:CSI16:1,2009-04-01T18:00:00Z,29.4012,-89.0355,1.0,32.282,11111222 
WAVCIS,ioos:station:WAVCIS:CSI16:1,2009-04-01T18:15:00Z,29.4012,-89.0355,1.0,32.403,11111222 
WAVCIS,ioos:station:WAVCIS:CSI16:1,2009-04-01T18:30:00Z,29.4012,-89.0355,1.0,32.397,11111222 
WAVCIS,ioos:station:WAVCIS:CSI16:1,2009-04-01T18:45:00Z,29.4012,-89.0355,1.0,32.459,11111222 
WAVCIS,ioos:station:WAVCIS:CSI16:1,2009-04-01T19:00:00Z,29.4012,-89.0355,1.0,32.504,11111222 
WAVCIS,ioos:station:WAVCIS:CSI16:1,2009-04-01T19:15:00Z,29.4012,-89.0355,1.0,32.526,11111222 
WAVCIS,ioos:station:WAVCIS:CSI16:1,2009-04-01T19:30:00Z,29.4012,-89.0355,1.0,32.561,11111222 
WAVCIS,ioos:station:WAVCIS:CSI16:1,2009-04-01T19:45:00Z,29.4012,-89.0355,1.0,32.599,11111222 
WAVCIS,ioos:station:WAVCIS:CSI16:1,2009-04-01T20:00:00Z,29.4012,-89.0355,1.0,32.59,11111222 
WAVCIS,ioos:station:WAVCIS:CSI16:1,2009-04-01T20:15:00Z,29.4012,-89.0355,1.0,32.625,11111222 
WAVCIS,ioos:station:WAVCIS:CSI16:1,2009-04-01T20:30:00Z,29.4012,-89.0355,1.0,32.658,11111222 
WAVCIS,ioos:station:WAVCIS:CSI16:1,2009-04-01T20:45:00Z,29.4012,-89.0355,1.0,32.639,11111222 
WAVCIS,ioos:station:WAVCIS:CSI16:1,2009-04-01T21:00:00Z,29.4012,-89.0355,1.0,32.496,11111222 
WAVCIS,ioos:station:WAVCIS:CSI16:1,2009-04-01T21:15:00Z,29.4012,-89.0355,1.0,32.384,11111222 
WAVCIS,ioos:station:WAVCIS:CSI16:1,2009-04-01T21:30:00Z,29.4012,-89.0355,1.0,32.345,11111222 
WAVCIS,ioos:station:WAVCIS:CSI16:1,2009-04-01T21:45:00Z,29.4012,-89.0355,1.0,32.307,11111222 
WAVCIS,ioos:station:WAVCIS:CSI16:1,2009-04-01T22:00:00Z,29.4012,-89.0355,1.0,32.379,11111222 
WAVCIS,ioos:station:WAVCIS:CSI16:1,2009-04-01T22:15:00Z,29.4012,-89.0355,1.0,32.291,11111222 
WAVCIS,ioos:station:WAVCIS:CSI16:1,2009-04-01T22:30:00Z,29.4012,-89.0355,1.0,32.187,11111222 
WAVCIS,ioos:station:WAVCIS:CSI16:1,2009-04-01T22:45:00Z,29.4012,-89.0355,1.0,32.073,11111222 
WAVCIS,ioos:station:WAVCIS:CSI16:1,2009-04-01T23:00:00Z,29.4012,-89.0355,1.0,32.007,11111222 
WAVCIS,ioos:station:WAVCIS:CSI16:1,2009-04-01T23:15:00Z,29.4012,-89.0355,1.0,31.953,11111222 
WAVCIS,ioos:station:WAVCIS:CSI16:1,2009-04-01T23:30:00Z,29.4012,-89.0355,1.0,31.918,11111222 
WAVCIS,ioos:station:WAVCIS:CSI16:1,2009-04-01T23:45:00Z,29.4012,-89.0355,1.0,31.797,11111222 
WAVCIS,ioos:station:WAVCIS:CSI16:1,2009-04-02T00:00:00Z,29.4012,-89.0355,1.0,31.673,11111222 
WAVCIS,ioos:station:WAVCIS:CSI16:1,2009-04-02T00:15:00Z,29.4012,-89.0355,1.0,31.616,11111222 
WAVCIS,ioos:station:WAVCIS:CSI16:1,2009-04-02T00:30:00Z,29.4012,-89.0355,1.0,31.513,11111222 
WAVCIS,ioos:station:WAVCIS:CSI16:1,2009-04-02T00:45:00Z,29.4012,-89.0355,1.0,31.538,11111222 
WAVCIS,ioos:station:WAVCIS:CSI16:1,2009-04-02T01:00:00Z,29.4012,-89.0355,1.0,31.389,11111222 
WAVCIS,ioos:station:WAVCIS:CSI16:1,2009-04-02T01:15:00Z,29.4012,-89.0355,1.0,31.177,11111222 
WAVCIS,ioos:station:WAVCIS:CSI16:1,2009-04-02T01:30:00Z,29.4012,-89.0355,1.0,31.134,11111222 
WAVCIS,ioos:station:WAVCIS:CSI16:1,2009-04-02T01:45:00Z,29.4012,-89.0355,1.0,31.127,11111222 
WAVCIS,ioos:station:WAVCIS:CSI16:1,2009-04-02T02:00:00Z,29.4012,-89.0355,1.0,30.79,11111222 
WAVCIS,ioos:station:WAVCIS:CSI16:1,2009-04-02T02:15:00Z,29.4012,-89.0355,1.0,30.6,11111222 
WAVCIS,ioos:station:WAVCIS:CSI16:1,2009-04-02T02:30:00Z,29.4012,-89.0355,1.0,30.337,11111222 
WAVCIS,ioos:station:WAVCIS:CSI16:1,2009-04-02T02:45:00Z,29.4012,-89.0355,1.0,30.236,11111222 
WAVCIS,ioos:station:WAVCIS:CSI16:1,2009-04-02T03:00:00Z,29.4012,-89.0355,1.0,29.985,11111222 
WAVCIS,ioos:station:WAVCIS:CSI16:1,2009-04-02T03:15:00Z,29.4012,-89.0355,1.0,29.885,11111222 
WAVCIS,ioos:station:WAVCIS:CSI16:1,2009-04-02T03:30:00Z,29.4012,-89.0355,1.0,29.299,11111222 
WAVCIS,ioos:station:WAVCIS:CSI16:1,2009-04-02T03:45:00Z,29.4012,-89.0355,1.0,28.954,11111222 
WAVCIS,ioos:station:WAVCIS:CSI16:1,2009-04-02T04:00:00Z,29.4012,-89.0355,1.0,28.395,11111222 
WAVCIS,ioos:station:WAVCIS:CSI16:1,2009-04-02T04:15:00Z,29.4012,-89.0355,1.0,28.512,11111222 
WAVCIS,ioos:station:WAVCIS:CSI16:1,2009-04-02T04:30:00Z,29.4012,-89.0355,1.0,27.708,11111222 
WAVCIS,ioos:station:WAVCIS:CSI16:1,2009-04-02T04:45:00Z,29.4012,-89.0355,1.0,27.396,11111222 
WAVCIS,ioos:station:WAVCIS:CSI16:1,2009-04-02T05:00:00Z,29.4012,-89.0355,1.0,27.806,11111222 
WAVCIS,ioos:station:WAVCIS:CSI16:1,2009-04-02T05:15:00Z,29.4012,-89.0355,1.0,27.662,11111222 
WAVCIS,ioos:station:WAVCIS:CSI16:1,2009-04-02T05:30:00Z,29.4012,-89.0355,1.0,27.795,11111222 
WAVCIS,ioos:station:WAVCIS:CSI16:1,2009-04-02T05:45:00Z,29.4012,-89.0355,1.0,27.531,11111222 
WAVCIS,ioos:station:WAVCIS:CSI16:1,2009-04-02T06:00:00Z,29.4012,-89.0355,1.0,27.522,11111222 
WAVCIS,ioos:station:WAVCIS:CSI16:1,2009-04-02T06:15:00Z,29.4012,-89.0355,1.0,27.346,11111222 
WAVCIS,ioos:station:WAVCIS:CSI16:1,2009-04-02T06:30:00Z,29.4012,-89.0355,1.0,27.429,11111222 
WAVCIS,ioos:station:WAVCIS:CSI16:1,2009-04-02T06:45:00Z,29.4012,-89.0355,1.0,27.181,11111222 
WAVCIS,ioos:station:WAVCIS:CSI16:1,2009-04-02T07:00:00Z,29.4012,-89.0355,1.0,27.383,11111222 
WAVCIS,ioos:station:WAVCIS:CSI16:1,2009-04-02T07:15:00Z,29.4012,-89.0355,1.0,27.337,11111222 
WAVCIS,ioos:station:WAVCIS:CSI16:1,2009-04-02T07:30:00Z,29.4012,-89.0355,1.0,27.27,11111222 
WAVCIS,ioos:station:WAVCIS:CSI16:1,2009-04-02T07:45:00Z,29.4012,-89.0355,1.0,21.329,11111222 
WAVCIS,ioos:station:WAVCIS:CSI16:1,2009-04-02T08:00:00Z,29.4012,-89.0355,1.0,20.494,11111222 
WAVCIS,ioos:station:WAVCIS:CSI16:1,2009-04-02T08:15:00Z,29.4012,-89.0355,1.0,20.107,11111222 
WAVCIS,ioos:station:WAVCIS:CSI16:1,2009-04-02T08:30:00Z,29.4012,-89.0355,1.0,22.35,11111222 
WAVCIS,ioos:station:WAVCIS:CSI16:1,2009-04-02T08:45:00Z,29.4012,-89.0355,1.0,20.674,11111222 
WAVCIS,ioos:station:WAVCIS:CSI16:1,2009-04-02T09:00:00Z,29.4012,-89.0355,1.0,20.378,11111222 
WAVCIS,ioos:station:WAVCIS:CSI16:1,2009-04-02T09:15:00Z,29.4012,-89.0355,1.0,21.543,11111222 
WAVCIS,ioos:station:WAVCIS:CSI16:1,2009-04-02T09:30:00Z,29.4012,-89.0355,1.0,20.031,11111222 
WAVCIS,ioos:station:WAVCIS:CSI16:1,2009-04-02T09:45:00Z,29.4012,-89.0355,1.0,20.851,11111222 
WAVCIS,ioos:station:WAVCIS:CSI16:1,2009-04-02T10:00:00Z,29.4012,-89.0355,1.0,21.941,11111222 
WAVCIS,ioos:station:WAVCIS:CSI16:1,2009-04-02T10:15:00Z,29.4012,-89.0355,1.0,22.388,11111222 
WAVCIS,ioos:station:WAVCIS:CSI16:1,2009-04-02T10:30:00Z,29.4012,-89.0355,1.0,23.188,11111222 
WAVCIS,ioos:station:WAVCIS:CSI16:1,2009-04-02T10:45:00Z,29.4012,-89.0355,1.0,22.946,11111222 
WAVCIS,ioos:station:WAVCIS:CSI16:1,2009-04-02T11:00:00Z,29.4012,-89.0355,1.0,24.207,11111222 
WAVCIS,ioos:station:WAVCIS:CSI16:1,2009-04-02T11:15:00Z,29.4012,-89.0355,1.0,24.957,11111222 
WAVCIS,ioos:station:WAVCIS:CSI16:1,2009-04-02T11:30:00Z,29.4012,-89.0355,1.0,24.96,11111222 
WAVCIS,ioos:station:WAVCIS:CSI16:1,2009-04-02T11:45:00Z,29.4012,-89.0355,1.0,27.373,11111222 
WAVCIS,ioos:station:WAVCIS:CSI16:1,2009-04-02T12:00:00Z,29.4012,-89.0355,1.0,26.243,11111222 
WAVCIS,ioos:station:WAVCIS:CSI16:1,2009-04-02T12:15:00Z,29.4012,-89.0355,1.0,29.055,11111222 
WAVCIS,ioos:station:WAVCIS:CSI16:1,2009-04-02T12:30:00Z,29.4012,-89.0355,1.0,29.118,11111222 
WAVCIS,ioos:station:WAVCIS:CSI16:1,2009-04-02T12:45:00Z,29.4012,-89.0355,1.0,29.031,11111222 
WAVCIS,ioos:station:WAVCIS:CSI16:1,2009-04-02T13:00:00Z,29.4012,-89.0355,1.0,27.202,11111222 
WAVCIS,ioos:station:WAVCIS:CSI16:1,2009-04-02T13:15:00Z,29.4012,-89.0355,1.0,26.966,11111222 
WAVCIS,ioos:station:WAVCIS:CSI16:1,2009-04-02T13:30:00Z,29.4012,-89.0355,1.0,27.436,11111222 
WAVCIS,ioos:station:WAVCIS:CSI16:1,2009-04-02T13:45:00Z,29.4012,-89.0355,1.0,27.629,11111222 
WAVCIS,ioos:station:WAVCIS:CSI16:1,2009-04-02T14:00:00Z,29.4012,-89.0355,1.0,27.796,11111222 
WAVCIS,ioos:station:WAVCIS:CSI16:1,2009-04-02T14:15:00Z,29.4012,-89.0355,1.0,28.506,11111222 
WAVCIS,ioos:station:WAVCIS:CSI16:1,2009-04-02T14:30:00Z,29.4012,-89.0355,1.0,28.282,11111222 
WAVCIS,ioos:station:WAVCIS:CSI16:1,2009-04-02T14:45:00Z,29.4012,-89.0355,1.0,29.219,11111222 
WAVCIS,ioos:station:WAVCIS:CSI16:1,2009-04-02T15:00:00Z,29.4012,-89.0355,1.0,29.887,11111222 
WAVCIS,ioos:station:WAVCIS:CSI16:1,2009-04-02T15:15:00Z,29.4012,-89.0355,1.0,30.186,11111222 
WAVCIS,ioos:station:WAVCIS:CSI16:1,2009-04-02T15:30:00Z,29.4012,-89.0355,1.0,29.974,11111222 
WAVCIS,ioos:station:WAVCIS:CSI16:1,2009-04-02T15:45:00Z,29.4012,-89.0355,1.0,30.393,11111222 
WAVCIS,ioos:station:WAVCIS:CSI16:1,2009-04-02T16:00:00Z,29.4012,-89.0355,1.0,30.62,11111222 
WAVCIS,ioos:station:WAVCIS:CSI16:1,2009-04-02T16:15:00Z,29.4012,-89.0355,1.0,30.543,11111222 
WAVCIS,ioos:station:WAVCIS:CSI16:1,2009-04-02T16:30:00Z,29.4012,-89.0355,1.0,30.432,11111222 
WAVCIS,ioos:station:WAVCIS:CSI16:1,2009-04-02T16:45:00Z,29.4012,-89.0355,1.0,30.424,11111222 
WAVCIS,ioos:station:WAVCIS:CSI16:1,2009-04-02T17:00:00Z,29.4012,-89.0355,1.0,30.219,11111222 
WAVCIS,ioos:station:WAVCIS:CSI16:1,2009-04-02T17:15:00Z,29.4012,-89.0355,1.0,30.299,11111222 
WAVCIS,ioos:station:WAVCIS:CSI16:1,2009-04-02T17:30:00Z,29.4012,-89.0355,1.0,29.124,11111222 
WAVCIS,ioos:station:WAVCIS:CSI16:1,2009-04-02T17:45:00Z,29.4012,-89.0355,1.0,28.81,11111222 
WAVCIS,ioos:station:WAVCIS:CSI16:1,2009-04-02T18:00:00Z,29.4012,-89.0355,1.0,29.846,11111222 
WAVCIS,ioos:station:WAVCIS:CSI16:1,2009-04-02T18:15:00Z,29.4012,-89.0355,1.0,29.625,11111222 
WAVCIS,ioos:station:WAVCIS:CSI16:1,2009-04-02T18:30:00Z,29.4012,-89.0355,1.0,29.288,11111222 
WAVCIS,ioos:station:WAVCIS:CSI16:1,2009-04-02T18:45:00Z,29.4012,-89.0355,1.0,28.686,11111222 
WAVCIS,ioos:station:WAVCIS:CSI16:1,2009-04-02T19:00:00Z,29.4012,-89.0355,1.0,28.767,11111222 
WAVCIS,ioos:station:WAVCIS:CSI16:1,2009-04-02T19:15:00Z,29.4012,-89.0355,1.0,28.923,11111222 
WAVCIS,ioos:station:WAVCIS:CSI16:1,2009-04-02T19:30:00Z,29.4012,-89.0355,1.0,29.777,11111222 
WAVCIS,ioos:station:WAVCIS:CSI16:1,2009-04-02T19:45:00Z,29.4012,-89.0355,1.0,29.497,11111222 
WAVCIS,ioos:station:WAVCIS:CSI16:1,2009-04-02T20:00:00Z,29.4012,-89.0355,1.0,29.66,11111222 
WAVCIS,ioos:station:WAVCIS:CSI16:1,2009-04-02T20:15:00Z,29.4012,-89.0355,1.0,29.998,11111222 
WAVCIS,ioos:station:WAVCIS:CSI16:1,2009-04-02T20:30:00Z,29.4012,-89.0355,1.0,30.112,11111222 
WAVCIS,ioos:station:WAVCIS:CSI16:1,2009-04-02T20:45:00Z,29.4012,-89.0355,1.0,30.218,11111222 
WAVCIS,ioos:station:WAVCIS:CSI16:1,2009-04-02T21:00:00Z,29.4012,-89.0355,1.0,29.707,11111222 
WAVCIS,ioos:station:WAVCIS:CSI16:1,2009-04-02T21:15:00Z,29.4012,-89.0355,1.0,30.051,11111222 
WAVCIS,ioos:station:WAVCIS:CSI16:1,2009-04-02T21:30:00Z,29.4012,-89.0355,1.0,26.193,11111222 
WAVCIS,ioos:station:WAVCIS:CSI16:1,2009-04-02T21:45:00Z,29.4012,-89.0355,1.0,26.724,11111222 
WAVCIS,ioos:station:WAVCIS:CSI16:1,2009-04-02T22:00:00Z,29.4012,-89.0355,1.0,27.843,11111222 
WAVCIS,ioos:station:WAVCIS:CSI16:1,2009-04-02T22:15:00Z,29.4012,-89.0355,1.0,28.097,11111222 
WAVCIS,ioos:station:WAVCIS:CSI16:1,2009-04-02T22:30:00Z,29.4012,-89.0355,1.0,28.423,11111222 
WAVCIS,ioos:station:WAVCIS:CSI16:1,2009-04-02T22:45:00Z,29.4012,-89.0355,1.0,29.482,11111222 
WAVCIS,ioos:station:WAVCIS:CSI16:1,2009-04-02T23:00:00Z,29.4012,-89.0355,1.0,28.632,11111222 
WAVCIS,ioos:station:WAVCIS:CSI16:1,2009-04-02T23:15:00Z,29.4012,-89.0355,1.0,28.292,11111222 
WAVCIS,ioos:station:WAVCIS:CSI16:1,2009-04-02T23:30:00Z,29.4012,-89.0355,1.0,28.732,11111222 
WAVCIS,ioos:station:WAVCIS:CSI16:1,2009-04-02T23:45:00Z,29.4012,-89.0355,1.0,28.391,11111222 
WAVCIS,ioos:station:WAVCIS:CSI16:1,2009-04-03T00:00:00Z,29.4012,-89.0355,1.0,27.974,11111222 
WAVCIS,ioos:station:WAVCIS:CSI16:1,2009-04-03T00:15:00Z,29.4012,-89.0355,1.0,28.063,11111222 
WAVCIS,ioos:station:WAVCIS:CSI16:1,2009-04-03T00:30:00Z,29.4012,-89.0355,1.0,27.519,11111222 
WAVCIS,ioos:station:WAVCIS:CSI16:1,2009-04-03T00:45:00Z,29.4012,-89.0355,1.0,27.021,11111222 
WAVCIS,ioos:station:WAVCIS:CSI16:1,2009-04-03T01:00:00Z,29.4012,-89.0355,1.0,27.479,11111222 
WAVCIS,ioos:station:WAVCIS:CSI16:1,2009-04-03T01:15:00Z,29.4012,-89.0355,1.0,27.792,11111222 
WAVCIS,ioos:station:WAVCIS:CSI16:1,2009-04-03T01:30:00Z,29.4012,-89.0355,1.0,28.034,11111222 
WAVCIS,ioos:station:WAVCIS:CSI16:1,2009-04-03T01:45:00Z,29.4012,-89.0355,1.0,23.555,11111222 
WAVCIS,ioos:station:WAVCIS:CSI16:1,2009-04-03T02:00:00Z,29.4012,-89.0355,1.0,24.291,11111222 
WAVCIS,ioos:station:WAVCIS:CSI16:1,2009-04-03T02:15:00Z,29.4012,-89.0355,1.0,25.542,11111222 
WAVCIS,ioos:station:WAVCIS:CSI16:1,2009-04-03T02:30:00Z,29.4012,-89.0355,1.0,25.643,11111222 
WAVCIS,ioos:station:WAVCIS:CSI16:1,2009-04-03T02:45:00Z,29.4012,-89.0355,1.0,25.531,11111222 
WAVCIS,ioos:station:WAVCIS:CSI16:1,2009-04-03T03:00:00Z,29.4012,-89.0355,1.0,25.803,11111222 
WAVCIS,ioos:station:WAVCIS:CSI16:1,2009-04-03T03:15:00Z,29.4012,-89.0355,1.0,25.891,11111222 
WAVCIS,ioos:station:WAVCIS:CSI16:1,2009-04-03T03:30:00Z,29.4012,-89.0355,1.0,26.017,11111222 
WAVCIS,ioos:station:WAVCIS:CSI16:1,2009-04-03T03:45:00Z,29.4012,-89.0355,1.0,25.937,11111222 
WAVCIS,ioos:station:WAVCIS:CSI16:1,2009-04-03T04:00:00Z,29.4012,-89.0355,1.0,25.977,11111222 
WAVCIS,ioos:station:WAVCIS:CSI16:1,2009-04-03T04:15:00Z,29.4012,-89.0355,1.0,25.828,11111222 
WAVCIS,ioos:station:WAVCIS:CSI16:1,2009-04-03T04:30:00Z,29.4012,-89.0355,1.0,25.771,11111222 
WAVCIS,ioos:station:WAVCIS:CSI16:1,2009-04-03T04:45:00Z,29.4012,-89.0355,1.0,25.956,11111222 
WAVCIS,ioos:station:WAVCIS:CSI16:1,2009-04-03T05:00:00Z,29.4012,-89.0355,1.0,24.094,11111222 
WAVCIS,ioos:station:WAVCIS:CSI16:1,2009-04-03T05:15:00Z,29.4012,-89.0355,1.0,23.619,11111222 
WAVCIS,ioos:station:WAVCIS:CSI16:1,2009-04-03T05:30:00Z,29.4012,-89.0355,1.0,22.466,11111222 
WAVCIS,ioos:station:WAVCIS:CSI16:1,2009-04-03T05:45:00Z,29.4012,-89.0355,1.0,24.066,11111222 
WAVCIS,ioos:station:WAVCIS:CSI16:1,2009-04-03T06:00:00Z,29.4012,-89.0355,1.0,25.242,11111222 
WAVCIS,ioos:station:WAVCIS:CSI16:1,2009-04-03T06:15:00Z,29.4012,-89.0355,1.0,23.407,11111222 
WAVCIS,ioos:station:WAVCIS:CSI16:1,2009-04-03T06:30:00Z,29.4012,-89.0355,1.0,23.78,11111222 
WAVCIS,ioos:station:WAVCIS:CSI16:1,2009-04-03T06:45:00Z,29.4012,-89.0355,1.0,24.13,11111222 
WAVCIS,ioos:station:WAVCIS:CSI16:1,2009-04-03T07:00:00Z,29.4012,-89.0355,1.0,23.081,11111222 
WAVCIS,ioos:station:WAVCIS:CSI16:1,2009-04-03T07:15:00Z,29.4012,-89.0355,1.0,23.294,11111222 
WAVCIS,ioos:station:WAVCIS:CSI16:1,2009-04-03T07:30:00Z,29.4012,-89.0355,1.0,22.489,11111222 
WAVCIS,ioos:station:WAVCIS:CSI16:1,2009-04-03T07:45:00Z,29.4012,-89.0355,1.0,22.386,11111222 
WAVCIS,ioos:station:WAVCIS:CSI16:1,2009-04-03T08:00:00Z,29.4012,-89.0355,1.0,21.882,11111222 
WAVCIS,ioos:station:WAVCIS:CSI16:1,2009-04-03T08:15:00Z,29.4012,-89.0355,1.0,21.679,11111222 
WAVCIS,ioos:station:WAVCIS:CSI16:1,2009-04-03T08:30:00Z,29.4012,-89.0355,1.0,22.185,11111222 
WAVCIS,ioos:station:WAVCIS:CSI16:1,2009-04-03T08:45:00Z,29.4012,-89.0355,1.0,21.33,11111222 
WAVCIS,ioos:station:WAVCIS:CSI16:1,2009-04-03T09:00:00Z,29.4012,-89.0355,1.0,21.318,11111222 
WAVCIS,ioos:station:WAVCIS:CSI16:1,2009-04-03T09:15:00Z,29.4012,-89.0355,1.0,20.502,11111222 
WAVCIS,ioos:station:WAVCIS:CSI16:1,2009-04-03T09:30:00Z,29.4012,-89.0355,1.0,20.565,11111222 
WAVCIS,ioos:station:WAVCIS:CSI16:1,2009-04-03T09:45:00Z,29.4012,-89.0355,1.0,20.4,11111222 
WAVCIS,ioos:station:WAVCIS:CSI16:1,2009-04-03T10:00:00Z,29.4012,-89.0355,1.0,21.264,11111222 
WAVCIS,ioos:station:WAVCIS:CSI16:1,2009-04-03T10:15:00Z,29.4012,-89.0355,1.0,20.999,11111222 
WAVCIS,ioos:station:WAVCIS:CSI16:1,2009-04-03T10:30:00Z,29.4012,-89.0355,1.0,20.95,11111222 
WAVCIS,ioos:station:WAVCIS:CSI16:1,2009-04-03T10:45:00Z,29.4012,-89.0355,1.0,21.149,11111222 
WAVCIS,ioos:station:WAVCIS:CSI16:1,2009-04-03T11:00:00Z,29.4012,-89.0355,1.0,21.051,11111222 
WAVCIS,ioos:station:WAVCIS:CSI16:1,2009-04-03T11:15:00Z,29.4012,-89.0355,1.0,21.43,11111222 
WAVCIS,ioos:station:WAVCIS:CSI16:1,2009-04-03T11:30:00Z,29.4012,-89.0355,1.0,21.654,11111222 
WAVCIS,ioos:station:WAVCIS:CSI16:1,2009-04-03T11:45:00Z,29.4012,-89.0355,1.0,21.811,11111222 
WAVCIS,ioos:station:WAVCIS:CSI16:1,2009-04-03T12:00:00Z,29.4012,-89.0355,1.0,23.126,11111222 
WAVCIS,ioos:station:WAVCIS:CSI16:1,2009-04-03T12:15:00Z,29.4012,-89.0355,1.0,23.242,11111222 
WAVCIS,ioos:station:WAVCIS:CSI16:1,2009-04-03T12:30:00Z,29.4012,-89.0355,1.0,23.757,11111222 
WAVCIS,ioos:station:WAVCIS:CSI16:1,2009-04-03T12:45:00Z,29.4012,-89.0355,1.0,24.438,11111222 
WAVCIS,ioos:station:WAVCIS:CSI16:1,2009-04-03T13:00:00Z,29.4012,-89.0355,1.0,24.461,11111222 
WAVCIS,ioos:station:WAVCIS:CSI16:1,2009-04-03T13:15:00Z,29.4012,-89.0355,1.0,24.796,11111222 
WAVCIS,ioos:station:WAVCIS:CSI16:1,2009-04-03T13:30:00Z,29.4012,-89.0355,1.0,25.326,11111222 
WAVCIS,ioos:station:WAVCIS:CSI16:1,2009-04-03T13:45:00Z,29.4012,-89.0355,1.0,25.798,11111222 
WAVCIS,ioos:station:WAVCIS:CSI16:1,2009-04-03T14:00:00Z,29.4012,-89.0355,1.0,25.959,11111222 
WAVCIS,ioos:station:WAVCIS:CSI16:1,2009-04-03T14:15:00Z,29.4012,-89.0355,1.0,26.247,11111222 
WAVCIS,ioos:station:WAVCIS:CSI16:1,2009-04-03T14:30:00Z,29.4012,-89.0355,1.0,26.683,11111222 
WAVCIS,ioos:station:WAVCIS:CSI16:1,2009-04-03T14:45:00Z,29.4012,-89.0355,1.0,27.018,11111222 
WAVCIS,ioos:station:WAVCIS:CSI16:1,2009-04-03T15:00:00Z,29.4012,-89.0355,1.0,27.045,11111222 
WAVCIS,ioos:station:WAVCIS:CSI16:1,2009-04-03T15:15:00Z,29.4012,-89.0355,1.0,27.575,11111222 